![]() |
EMODnet Physics ERDDAP
Easier access to scientific data |
log in|
Brought to you by EMODnet Physics |
| Dataset Title: | NDBC - Collection of dew point temperature (DEWT) TimeSeries - IN SITU MultiPointTimeSeriesObservation
|
| Institution: | NDBC (Dataset ID: TS_DEWT_NDBC) |
| Information: | Summary
| License
| FGDC
| ISO 19115
| Metadata
| Background
| Subset
| Data Access Form
| Make a graph
|
| Name | Last modified | Size | Description | |
|---|---|---|---|---|
| Parent Directory | - | - | ||
| SHXA2_TS_DEWT_012018.nc | 27-Oct-2024 20:44 | 587780 | ||
| SHXA2_TS_DEWT_012019.nc | 27-Oct-2024 20:44 | 440247 | ||
| SHXA2_TS_DEWT_012020.nc | 27-Oct-2024 20:45 | 439735 | ||
| SHXA2_TS_DEWT_012021.nc | 27-Oct-2024 20:45 | 588108 | ||
| SHXA2_TS_DEWT_012022.nc | 27-Oct-2024 20:45 | 588128 | ||
| SHXA2_TS_DEWT_012023.nc | 27-Oct-2024 20:45 | 440101 | ||
| SHXA2_TS_DEWT_012024.nc | 27-Oct-2024 20:45 | 588052 | ||
| SHXA2_TS_DEWT_012025.nc | 07-Feb-2025 15:35 | 436523 | ||
| SHXA2_TS_DEWT_022018.nc | 27-Oct-2024 20:45 | 588049 | ||
| SHXA2_TS_DEWT_022019.nc | 27-Oct-2024 20:45 | 440235 | ||
| SHXA2_TS_DEWT_022020.nc | 27-Oct-2024 20:45 | 440283 | ||
| SHXA2_TS_DEWT_022021.nc | 27-Oct-2024 20:45 | 440347 | ||
| SHXA2_TS_DEWT_022022.nc | 27-Oct-2024 20:45 | 439946 | ||
| SHXA2_TS_DEWT_022023.nc | 27-Oct-2024 20:45 | 588207 | ||
| SHXA2_TS_DEWT_022024.nc | 16-Sep-2024 16:51 | 588207 | ||
| SHXA2_TS_DEWT_022025.nc | 01-Mar-2025 10:37 | 588066 | ||
| SHXA2_TS_DEWT_032018.nc | 27-Oct-2024 20:45 | 427822 | ||
| SHXA2_TS_DEWT_032019.nc | 27-Oct-2024 20:45 | 429485 | ||
| SHXA2_TS_DEWT_032020.nc | 27-Oct-2024 20:45 | 438900 | ||
| SHXA2_TS_DEWT_032021.nc | 27-Oct-2024 20:45 | 439796 | ||
| SHXA2_TS_DEWT_032022.nc | 27-Oct-2024 20:45 | 587055 | ||
| SHXA2_TS_DEWT_032023.nc | 27-Oct-2024 20:45 | 587230 | ||
| SHXA2_TS_DEWT_032025.nc | 30-Mar-2025 17:08 | 438231 | ||
| SHXA2_TS_DEWT_042018.nc | 27-Oct-2024 20:46 | 587162 | ||
| SHXA2_TS_DEWT_042019.nc | 27-Oct-2024 20:46 | 439839 | ||
| SHXA2_TS_DEWT_042020.nc | 27-Oct-2024 20:46 | 586972 | ||
| SHXA2_TS_DEWT_042021.nc | 27-Oct-2024 20:46 | 440331 | ||
| SHXA2_TS_DEWT_042022.nc | 27-Oct-2024 20:46 | 439888 | ||
| SHXA2_TS_DEWT_042023.nc | 27-Oct-2024 20:46 | 587293 | ||
| SHXA2_TS_DEWT_052018.nc | 27-Oct-2024 20:46 | 587176 | ||
| SHXA2_TS_DEWT_052019.nc | 27-Oct-2024 20:46 | 427542 | ||
| SHXA2_TS_DEWT_052020.nc | 27-Oct-2024 20:46 | 425734 | ||
| SHXA2_TS_DEWT_052021.nc | 27-Oct-2024 20:46 | 438787 | ||
| SHXA2_TS_DEWT_052022.nc | 27-Oct-2024 20:46 | 438803 | ||
| SHXA2_TS_DEWT_052023.nc | 27-Oct-2024 20:46 | 438722 | ||
| SHXA2_TS_DEWT_062018.nc | 27-Oct-2024 20:47 | 438699 | ||
| SHXA2_TS_DEWT_062019.nc | 27-Oct-2024 20:47 | 438997 | ||
| SHXA2_TS_DEWT_062020.nc | 27-Oct-2024 20:47 | 438662 | ||
| SHXA2_TS_DEWT_062021.nc | 27-Oct-2024 20:47 | 438051 | ||
| SHXA2_TS_DEWT_062022.nc | 27-Oct-2024 20:47 | 438771 | ||
| SHXA2_TS_DEWT_062023.nc | 27-Oct-2024 20:47 | 439228 | ||
| SHXA2_TS_DEWT_072018.nc | 27-Oct-2024 20:47 | 438027 | ||
| SHXA2_TS_DEWT_072019.nc | 27-Oct-2024 20:47 | 438864 | ||
| SHXA2_TS_DEWT_072020.nc | 27-Oct-2024 20:47 | 438876 | ||
| SHXA2_TS_DEWT_072021.nc | 27-Oct-2024 20:47 | 429849 | ||
| SHXA2_TS_DEWT_072022.nc | 27-Oct-2024 20:47 | 587023 | ||
| SHXA2_TS_DEWT_072023.nc | 27-Oct-2024 20:47 | 438962 | ||
| SHXA2_TS_DEWT_082018.nc | 27-Oct-2024 20:47 | 440043 | ||
| SHXA2_TS_DEWT_082019.nc | 27-Oct-2024 20:47 | 587145 | ||
| SHXA2_TS_DEWT_082020.nc | 27-Oct-2024 20:48 | 439727 | ||
| SHXA2_TS_DEWT_082021.nc | 27-Oct-2024 20:48 | 586969 | ||
| SHXA2_TS_DEWT_082022.nc | 27-Oct-2024 20:48 | 586962 | ||
| SHXA2_TS_DEWT_082023.nc | 27-Oct-2024 20:48 | 440208 | ||
| SHXA2_TS_DEWT_092018.nc | 27-Oct-2024 20:48 | 440185 | ||
| SHXA2_TS_DEWT_092019.nc | 27-Oct-2024 20:48 | 434147 | ||
| SHXA2_TS_DEWT_092020.nc | 27-Oct-2024 20:48 | 587267 | ||
| SHXA2_TS_DEWT_092021.nc | 27-Oct-2024 20:48 | 587318 | ||
| SHXA2_TS_DEWT_092022.nc | 27-Oct-2024 20:48 | 429547 | ||
| SHXA2_TS_DEWT_092023.nc | 27-Oct-2024 20:48 | 418996 | ||
| SHXA2_TS_DEWT_102018.nc | 27-Oct-2024 20:48 | 439973 | ||
| SHXA2_TS_DEWT_102019.nc | 27-Oct-2024 20:48 | 439592 | ||
| SHXA2_TS_DEWT_102020.nc | 27-Oct-2024 20:48 | 426851 | ||
| SHXA2_TS_DEWT_102021.nc | 27-Oct-2024 20:49 | 439377 | ||
| SHXA2_TS_DEWT_102022.nc | 27-Oct-2024 20:49 | 439938 | ||
| SHXA2_TS_DEWT_102023.nc | 27-Oct-2024 20:49 | 439813 | ||
| SHXA2_TS_DEWT_112018.nc | 27-Oct-2024 20:49 | 439927 | ||
| SHXA2_TS_DEWT_112019.nc | 27-Oct-2024 20:49 | 439841 | ||
| SHXA2_TS_DEWT_112020.nc | 27-Oct-2024 20:49 | 439343 | ||
| SHXA2_TS_DEWT_112021.nc | 27-Oct-2024 20:49 | 438830 | ||
| SHXA2_TS_DEWT_112022.nc | 27-Oct-2024 20:49 | 439278 | ||
| SHXA2_TS_DEWT_112023.nc | 27-Oct-2024 20:49 | 440227 | ||
| SHXA2_TS_DEWT_112024.nc | 17-Jan-2025 21:18 | 440167 | ||
| SHXA2_TS_DEWT_122017.nc | 27-Oct-2024 20:49 | 422469 | ||
| SHXA2_TS_DEWT_122019.nc | 27-Oct-2024 20:49 | 420157 | ||
| SHXA2_TS_DEWT_122020.nc | 27-Oct-2024 20:49 | 587291 | ||
| SHXA2_TS_DEWT_122021.nc | 27-Oct-2024 20:49 | 439188 | ||
| SHXA2_TS_DEWT_122022.nc | 27-Oct-2024 20:49 | 587022 | ||
| SHXA2_TS_DEWT_122023.nc | 27-Oct-2024 20:50 | 440439 | ||
| SHXA2_TS_DEWT_122024.nc | 22-Jan-2025 20:53 | 587143 | ||